Regional Weather Roundup
Issued by NWS Albany, NY

Home | Current Version | Previous Version | Graphics & Text | Print | Product List | Glossary Off
Versions: 1 2 3 4 5 6 7 8 9 10 11 12 13 14 15 16 17 18 19 20 21 22 23 24 25 26 27 28

000
ASUS41 KALY 271410
RWRALY

NEW YORK STATE HOURLY WEATHER ROUNDUP
NATIONAL WEATHER SERVICE ALBANY NY
1000 AM EDT WED JUL 27 2016

NOTE: "FAIR" INDICATES FEW OR NO CLOUDS BELOW 12,000 FEET WITH NO
SIGNIFICANT WEATHER AND/OR NO OBSTRUCTIONS TO VISIBILITY.

NYZ032-033-038>043-046>054-057>066-NYZ062>081-082-084-271500-
EAST


CITY           SKY/WX    TMP DP  RH WIND       PRES   REMARKS
ALBANY         SUNNY     79  60  52 W6        29.96F
GLENS FALLS    SUNNY     75  63  66 S3        29.96S
POUGHKEEPSIE   SUNNY     79  63  57 CALM      29.96F
NEWBURGH       SUNNY     77  64  65 VRB5      30.00S
MONTGOMERY     SUNNY     79  65  62 S5        29.97F
WHITE PLAINS   SUNNY     82  60  47 CALM      29.96S
ISLIP          MOSUNNY   84  63  49 CALM      29.94F
NEW YORK CITY  MOSUNNY   82  60  47 E7        29.95S
CENTRAL PARK   SUNNY     82  61  48 VRB5      29.98S
$$

NYZ005>009-017-018-044>046-055-056-271500-
CENTRAL


CITY           SKY/WX    TMP DP  RH WIND       PRES   REMARKS
FULTON         SUNNY     78  65  63 SW5       29.98S
SYRACUSE       PTSUNNY   77  65  66 SW8       29.98S
ROME           SUNNY     73  64  73 CALM      30.00S
ELMIRA         SUNNY     76  61  59 SW6       30.00F
BINGHAMTON     SUNNY     75  60  59 W5        30.03F
MONTICELLO     SUNNY     75  63  64 NW7       30.04S
$$

NYZ026>034-041>043-087-271500-
NORTH


CITY           SKY/WX    TMP DP  RH WIND       PRES   REMARKS
WATERTOWN      SUNNY     78  65  63 W9        29.97S
FORT DRUM      NOT AVBL
MASSENA        SUNNY     77  63  61 SW12      29.93S
SARANAC LAKE   SUNNY     72  59  63 SW8       29.99S
PLATTSBURGH    PTSUNNY   74  65  73 SE8       29.93S
$$

NYZ001>004-010>016-019>021-085-271500-
WEST


CITY           SKY/WX    TMP DP  RH WIND       PRES   REMARKS
NIAGARA FALLS  MOSUNNY   81  67  62 SW14      29.98F
BUFFALO        MOSUNNY   77  66  68 W13       29.99F
DUNKIRK        SUNNY     80  63  55 VRB7      30.01S
JAMESTOWN      SUNNY     72  61  68 SW3       30.06F
WELLSVILLE     SUNNY     76  59  55 VRB7      30.09S
ROCHESTER      MOSUNNY   79  65  62 SW8       29.99S
PENN YAN       SUNNY     77  64  64 W5        30.01F
$$

             KEY
       WCI = WIND CHILL INDEX
       VSB = VISIBILITY
       HX  = HEAT INDEX
$$




USA.gov is the U.S. government's official web portal to all federal, state and local government web resources and services.